GFSWCAN_700_spd_105.txt.gz
Wind_Speed
28 23 18 17 16 16 13 12 14 14 12 11 9 9 11 14 13 12 11 13 15 17 18 20 20 21 21 18 17 17 16 10 8 6 5 5 5 7 8 11 12 10 6 10 10 10 12 4 9 11 12 17 25 26
27 22 20 17 18 17 16 13 14 14 16 14 13 12 9 11 15 15 16 14 13 14 15 20 21 23 24 25 25 24 20 18 10 8 9 8 12 14 19 10 15 12 15 9 13 9 18 22 24 26 31 30 28 21
27 22 19 18 17 20 20 16 16 16 16 18 16 15 14 13 14 15 16 18 18 17 16 12 13 16 14 16 18 20 23 22 21 20 21 20 20 20 13 16 21 24 24 31 31 27 22 23 22 25 31 32 33 30
26 23 23 22 20 18 22 21 16 18 20 20 19 18 17 15 15 16 17 18 20 22 26 21 7 12 16 19 23 23 22 21 24 24 25 26 28 22 25 27 35 32 35 32 36 34 25 22 22 21 22 23 21 22
24 24 23 24 25 21 23 24 26 24 24 25 25 20 19 18 17 19 19 19 20 18 25 27 32 29 29 26 22 19 20 23 24 27 29 32 33 32 34 37 40 29 22 23 23 26 26 26 22 20 22 26 28 27
27 26 25 27 28 28 26 27 29 30 30 29 27 28 25 20 16 16 20 20 18 17 25 29 23 24 25 24 28 31 30 28 27 30 32 34 34 29 22 37 42 35 20 25 29 26 23 22 20 21 22 23 22 22
35 33 34 34 34 33 30 30 29 31 32 32 31 29 28 28 25 19 19 22 21 22 25 22 22 17 11 12 16 18 20 21 23 28 34 37 38 35 43 51 43 37 34 33 19 19 18 18 19 19 22 22 23 21
41 41 39 35 36 33 31 30 30 29 31 33 34 34 30 29 29 24 22 24 24 22 24 16 20 24 22 22 25 25 26 26 30 31 38 37 37 39 48 43 39 29 19 17 23 25 23 24 22 23 23 22 21 20
39 37 37 33 33 32 29 28 28 28 29 31 31 30 28 27 30 30 28 27 27 26 21 29 34 29 18 16 19 23 24 27 27 33 38 31 39 42 33 33 34 28 31 32 31 27 25 21 21 21 20 20 19 18
29 29 29 28 27 28 28 26 26 26 28 30 26 23 27 26 26 28 32 34 34 34 38 36 34 43 36 34 29 22 18 15 17 22 23 27 42 36 23 19 19 23 27 28 26 22 20 17 19 19 19 18 16 16
26 27 27 26 26 26 25 26 27 26 29 29 31 30 24 23 24 26 23 16 13 11 15 19 25 35 34 32 30 16 11 10 9 11 14 11 34 22 19 14 12 12 14 15 15 14 13 12 15 18 18 15 13 12
27 28 27 27 27 26 26 26 27 26 29 30 31 30 31 24 19 15 15 12 11 9 13 17 21 24 23 19 17 11 15 10 10 11 9 9 24 25 20 14 10 8 8 8 7 7 9 10 12 13 12 11 11 12
27 27 26 26 26 25 23 23 25 26 28 21 22 24 19 15 19 13 13 10 7 11 15 15 17 18 16 12 10 9 8 11 10 9 10 24 22 19 16 12 6 6 6 6 6 6 7 9 11 11 11 11 12 15
28 28 27 27 26 24 23 23 24 20 19 19 23 22 15 15 15 25 29 26 23 23 23 21 18 13 15 11 11 7 10 9 9 9 26 25 23 16 10 7 6 6 8 7 7 9 10 12 12 12 12 14 16 19
30 30 30 29 27 25 24 25 24 20 21 25 19 19 31 38 39 33 27 26 24 26 22 23 21 15 16 12 8 10 7 9 10 11 12 13 12 13 9 8 8 8 9 11 13 14 14 15 15 14 15 16 18 20
31 32 33 30 28 27 27 28 27 24 28 32 28 32 39 36 36 36 35 33 25 28 30 30 23 12 16 11 14 14 10 13 18 15 15 15 18 17 13 12 11 10 12 16 20 21 22 23 21 20 19 20 20 23
33 36 33 28 28 28 27 25 30 33 30 39 43 46 48 52 49 48 46 43 35 33 33 28 24 19 13 12 17 21 35 36 35 33 30 28 27 23 20 15 11 16 19 20 21 23 28 31 33 33 32 33 30 26
35 32 28 25 25 24 28 28 33 37 39 45 45 45 47 48 47 46 44 43 39 44 45 43 37 30 25 27 30 35 35 31 34 30 28 29 27 20 20 17 18 17 20 23 24 29 35 37 41 37 39 38 31 25
28 25 23 21 22 24 26 32 38 41 45 48 48 45 37 40 46 43 39 37 37 38 41 45 37 36 44 46 45 45 40 39 39 41 39 38 39 30 29 33 35 40 36 32 35 39 41 44 43 41 37 32 29 27
27 26 24 21 24 28 31 35 35 36 46 50 49 51 56 56 52 48 46 42 34 36 44 50 54 52 50 48 46 43 39 37 41 46 44 41 42 41 39 42 48 50 50 43 45 47 48 46 41 39 38 34 29 28
28 28 25 24 28 32 35 33 36 34 38 43 45 46 49 49 48 45 41 36 36 34 37 39 38 36 33 32 36 40 38 36 38 38 40 42 44 45 43 44 46 46 47 44 43 42 41 39 37 41 35 33 34 28
29 26 27 28 31 34 40 45 41 32 37 42 39 35 33 37 39 41 38 36 38 38 39 40 32 24 26 30 34 37 38 37 40 39 40 42 47 47 46 45 45 44 43 42 42 42 41 39 40 36 33 32 34 29
28 28 29 30 33 38 44 41 43 48 49 46 33 26 31 37 37 34 34 40 45 42 40 42 45 41 45 43 37 35 38 42 43 40 38 44 46 47 49 48 47 48 51 48 45 44 42 40 41 39 33 31 33 26
28 30 34 37 37 30 30 32 38 41 42 42 40 42 45 46 41 39 42 55 52 50 50 45 41 43 40 37 34 37 38 38 43 46 44 43 46 47 50 50 48 44 43 45 44 43 40 39 38 38 33 32 27 25
27 30 35 33 35 32 35 36 35 35 40 37 41 44 40 34 32 33 42 49 48 47 44 35 31 29 29 23 22 26 29 33 37 41 42 42 46 46 45 45 45 41 36 38 34 37 38 34 33 33 30 25 25 25
30 33 32 22 27 33 37 40 42 41 40 44 45 40 42 37 38 37 47 40 42 38 33 32 23 26 21 16 21 25 27 28 26 28 32 32 34 38 40 40 40 35 31 33 34 34 33 28 26 23 22 22 24 21
36 33 25 25 33 37 34 37 35 34 35 40 38 35 39 34 35 41 37 37 27 20 14 15 19 22 26 28 27 30 36 38 39 43 31 20 16 21 27 31 32 26 28 27 31 26 20 18 19 20 22 22 20 21
43 40 32 33 37 37 36 37 37 38 38 35 37 36 29 26 34 41 41 36 30 29 26 29 33 33 33 30 30 31 30 32 35 44 40 29 22 23 22 26 27 25 23 17 18 18 19 20 21 22 21 20 21 22
45 44 43 46 47 49 48 48 43 39 38 43 43 40 40 46 45 44 43 38 36 34 33 33 33 33 35 38 37 36 35 36 37 39 41 40 34 35 30 22 17 18 17 17 20 21 21 22 21 20 19 19 22 22
45 44 47 47 48 51 52 50 51 48 45 39 36 41 40 36 35 35 36 35 34 36 37 37 40 41 41 38 37 38 38 38 39 41 42 40 35 31 35 32 22 20 18 17 17 18 18 17 17 17 17 21 21 21
37 39 42 43 47 47 45 47 48 47 46 44 44 45 48 46 46 41 39 39 40 41 43 46 44 43 45 43 43 41 43 41 42 41 39 37 32 32 29 29 31 28 23 20 18 17 17 16 17 17 19 20 19 17
37 37 38 38 39 33 35 39 40 40 41 44 45 47 49 50 49 47 41 42 44 46 47 47 47 45 38 33 35 38 39 41 41 39 38 38 35 33 32 31 32 37 34 30 24 20 18 17 17 19 19 19 19 19
45 46 46 44 42 43 39 38 41 43 42 45 48 47 48 49 52 45 41 38 39 41 39 36 31 26 29 33 35 37 40 41 40 37 35 38 39 38 36 33 31 36 39 37 27 24 20 19 17 18 19 20 21 20

GFSWCAN_700_spd_108.txt.gz
Wind_Speed
17 17 19 18 18 17 18 14 13 14 14 13 14 12 9 10 12 13 11 11 12 13 15 18 19 19 18 17 16 16 18 12 10 6 5 6 7 8 9 11 14 11 7 10 10 10 12 2 6 12 16 20 22 29
21 18 18 18 18 16 16 17 15 13 16 15 15 15 15 13 12 12 15 16 15 14 14 15 14 16 17 19 21 22 19 18 10 9 10 8 12 17 18 12 12 13 15 9 14 11 21 27 33 32 32 32 32 33
28 25 22 21 20 18 18 17 16 17 14 16 15 16 17 17 16 15 15 16 19 20 17 16 8 15 18 14 17 19 18 18 20 20 24 23 25 21 21 23 22 23 21 28 28 30 25 28 32 31 30 30 33 33
26 24 21 20 20 22 20 20 17 18 19 16 19 20 20 20 20 18 18 16 17 21 24 10 12 14 15 18 23 24 23 25 24 23 25 29 32 20 29 30 34 31 33 36 37 30 21 22 23 23 23 25 25 24
25 22 19 16 19 21 22 22 21 22 24 22 21 21 21 20 21 21 21 21 22 19 23 24 23 20 22 24 22 24 27 26 22 27 30 34 35 34 38 41 49 40 34 33 27 24 26 30 27 24 22 21 23 24
26 26 23 18 17 18 21 22 23 25 27 26 26 26 25 24 22 22 22 20 17 22 27 30 23 24 17 11 12 19 23 27 32 33 33 36 35 31 28 46 52 44 38 31 26 25 30 30 21 21 21 21 23 23
33 30 30 26 25 25 26 27 28 29 28 28 28 28 30 28 27 23 24 23 22 23 25 22 20 10 7 14 20 19 19 20 22 27 34 34 37 37 48 53 40 39 39 37 35 34 27 19 18 20 22 22 22 23
39 35 33 33 33 33 32 31 29 28 29 28 28 28 29 30 29 27 24 25 26 25 25 13 21 24 20 25 24 20 18 21 26 28 36 36 35 39 47 37 37 31 34 26 23 26 22 22 22 22 23 22 23 23
38 37 36 35 36 36 36 34 32 29 28 29 28 29 30 29 28 27 28 27 26 24 18 21 31 32 17 15 14 22 29 30 29 29 31 25 31 36 37 34 29 28 33 32 28 30 29 30 28 28 25 22 23 23
34 31 31 30 30 29 29 30 29 26 25 26 27 27 29 23 22 24 29 30 32 32 35 34 30 39 34 31 30 24 16 9 16 17 17 21 27 31 25 22 27 28 25 24 24 25 26 26 24 21 21 21 21 22
25 25 25 24 23 23 23 24 22 22 22 24 26 26 26 27 27 27 19 12 11 9 9 7 10 22 25 29 29 15 10 9 8 9 10 9 20 24 21 26 27 22 20 14 11 11 13 12 9 11 14 15 16 16
23 24 24 24 23 22 24 23 22 22 22 22 23 25 26 25 18 11 11 9 6 7 8 9 10 12 14 14 8 9 11 8 8 9 7 6 20 27 28 25 21 18 11 8 6 6 8 9 9 11 13 13 12 11
24 25 25 24 24 22 23 24 22 21 20 20 19 17 13 11 17 12 11 9 5 5 8 10 11 13 11 10 7 9 8 10 9 8 9 24 16 22 27 20 14 11 8 6 6 7 9 11 13 14 15 15 15 16
24 24 24 24 23 22 22 24 23 20 18 17 17 16 12 12 10 16 21 20 19 17 17 13 18 14 14 15 10 7 9 8 7 9 24 14 16 18 20 14 11 9 7 8 9 11 12 14 13 12 12 12 13 16
25 26 26 26 23 22 23 25 24 22 19 19 13 14 22 23 26 24 16 11 12 18 20 20 21 20 17 11 9 9 7 10 9 9 11 14 22 24 24 22 17 14 12 12 12 12 13 15 18 19 18 20 23 26
28 28 28 27 25 25 24 25 26 21 22 22 28 31 35 35 32 31 29 30 27 24 23 22 21 16 20 13 14 14 10 13 26 28 26 30 29 27 29 30 24 21 20 19 17 18 19 20 22 23 25 28 28 36
30 32 27 25 27 26 25 21 21 26 25 33 47 45 45 47 46 42 36 33 31 35 39 35 34 27 23 16 19 22 31 25 26 29 32 31 33 31 28 33 35 32 30 27 24 23 23 26 28 32 35 38 40 43
31 29 25 22 23 23 22 23 26 30 37 45 48 47 45 45 45 46 44 43 38 36 36 38 36 26 30 36 47 47 42 44 49 49 45 38 40 43 40 33 30 30 29 30 32 31 28 32 36 42 45 46 55 45
26 24 20 17 19 21 23 29 32 39 46 47 50 49 48 48 46 46 45 44 39 30 30 35 32 36 42 41 43 43 44 43 44 44 48 49 42 43 44 38 33 34 39 41 44 47 49 50 50 51 49 54 54 50
24 23 21 20 23 25 28 31 32 35 46 47 49 49 48 49 48 49 48 47 42 45 45 49 52 50 47 41 37 39 42 43 46 49 46 41 41 45 45 43 44 47 50 50 49 50 53 55 53 50 49 50 52 48
26 26 25 26 30 34 35 33 34 34 34 36 38 39 42 43 43 43 44 42 45 50 53 54 51 48 37 39 46 40 33 31 40 44 45 45 41 42 44 46 46 46 47 46 45 47 49 51 46 43 41 43 42 43
28 26 28 30 32 37 42 43 42 40 39 40 37 31 35 37 36 34 34 38 42 45 46 43 43 43 42 41 39 40 45 46 45 46 42 40 42 45 46 47 49 52 52 48 51 54 52 50 49 47 43 41 42 41
28 29 30 31 34 39 42 44 41 42 44 47 46 44 44 42 38 36 39 40 46 47 46 46 44 39 38 40 44 41 40 40 38 40 43 42 43 46 47 47 49 53 54 52 55 53 51 46 44 43 42 40 39 40
28 30 32 36 35 31 35 34 39 41 43 43 44 45 46 47 48 53 59 60 58 53 50 49 53 52 45 40 39 34 30 32 34 35 33 38 43 44 43 46 47 47 49 49 49 46 40 38 38 39 35 35 35 35
29 28 30 32 24 29 41 41 41 41 44 44 42 42 43 42 38 41 44 46 48 46 47 49 42 32 28 25 25 28 25 21 27 23 23 24 32 32 34 37 39 41 39 41 41 40 38 37 39 37 34 31 29 25
29 31 31 29 26 32 37 39 42 46 45 45 45 43 41 40 41 41 46 48 48 45 39 25 25 26 27 27 25 19 16 20 29 31 28 27 29 35 36 35 35 34 29 36 38 38 38 35 35 34 29 23 21 18
32 31 30 34 36 39 38 39 38 35 38 38 41 41 38 39 42 47 45 40 35 28 16 18 28 30 23 20 21 21 27 32 31 30 31 31 30 28 29 34 34 30 34 34 33 35 33 30 30 24 15 12 14 11
44 43 42 42 44 46 47 42 41 40 40 41 43 42 41 42 45 39 33 31 27 27 30 32 27 29 31 33 35 36 36 35 34 36 38 39 35 34 33 32 33 34 32 34 31 27 24 20 17 15 12 11 13 14
46 43 45 49 49 47 46 48 49 50 48 47 49 50 52 55 50 46 48 41 37 38 37 35 33 33 35 36 38 38 38 38 38 39 39 41 40 39 33 32 32 31 29 30 32 25 23 18 16 16 14 14 15 16
43 46 50 51 50 52 51 50 50 46 48 51 51 52 55 54 50 46 46 45 43 38 36 38 35 35 37 35 37 40 40 39 39 40 43 45 44 38 35 37 35 32 28 26 28 27 26 22 20 16 15 15 17 14
44 45 46 45 46 35 37 36 44 45 43 44 46 53 58 56 51 48 48 47 43 42 43 43 42 40 40 41 42 42 45 40 41 42 43 43 40 36 31 35 35 32 29 26 25 27 28 25 22 21 17 14 11 12
37 41 44 45 45 42 44 46 47 49 50 52 53 50 48 49 54 52 46 42 42 46 45 42 39 40 38 39 38 36 39 42 43 40 40 40 38 34 31 32 32 30 30 30 27 29 28 28 25 21 18 14 11 16
48 46 45 45 47 48 48 49 51 54 53 52 47 43 46 49 53 46 42 40 41 42 39 33 30 31 30 28 29 30 32 35 36 35 35 38 38 33 32 31 31 29 28 28 29 29 29 29 27 26 23 17 15 17

GFSWCAN_700_spd_114.txt.gz
Wind_Speed
26 25 24 22 20 18 16 16 17 16 16 14 11 10 8 9 7 6 7 6 7 8 12 13 9 10 11 12 13 12 13 5 7 5 4 3 4 5 7 10 11 8 7 7 9 10 11 4 8 14 21 29 32 32
29 27 26 24 22 20 19 20 19 19 16 18 15 13 10 9 11 11 9 9 9 8 10 11 13 14 14 14 13 14 12 12 6 6 7 7 11 15 15 11 15 11 8 11 13 14 24 36 32 30 34 39 35 31
30 29 28 26 24 22 22 20 19 18 18 17 19 16 13 13 13 15 16 15 13 12 13 10 9 5 11 13 18 17 15 14 13 16 20 19 18 18 18 19 21 23 22 29 33 26 32 33 34 34 33 29 23 24
31 30 29 27 25 23 21 20 19 18 20 17 19 19 18 17 16 16 16 17 17 17 12 2 12 17 19 19 17 15 16 22 23 23 22 26 28 20 26 25 33 32 33 35 38 28 26 22 23 24 28 29 27 28
32 29 29 28 26 23 22 21 18 16 18 19 19 23 24 22 19 17 18 18 19 15 17 19 20 18 13 22 22 20 18 19 23 25 25 27 28 29 33 34 29 22 23 23 29 22 27 28 27 28 31 28 27 27
31 30 31 29 26 23 21 20 20 17 16 17 18 19 24 22 21 20 19 16 16 18 21 22 20 22 20 13 10 9 9 16 18 20 23 28 26 22 21 32 34 31 24 27 33 30 29 29 28 29 32 30 31 29
34 33 30 28 27 26 23 24 22 21 21 20 20 20 23 23 22 21 21 20 21 22 21 16 15 6 4 7 12 17 23 23 23 24 28 27 25 26 35 43 34 16 25 24 24 31 33 31 34 32 31 30 29 26
37 35 31 29 36 32 29 28 24 24 24 24 25 24 25 26 26 26 24 24 23 21 20 8 11 15 18 20 22 22 19 16 18 21 27 29 29 30 32 12 18 28 24 22 27 31 34 32 30 31 29 27 26 24
40 34 30 34 30 29 33 27 25 26 28 27 27 28 26 26 25 26 25 23 23 20 15 18 18 21 17 15 15 19 25 20 21 21 22 16 17 18 22 29 24 22 30 31 26 29 30 31 29 26 25 26 26 28
40 39 43 42 41 39 37 33 32 26 29 26 25 25 25 22 21 22 23 25 26 26 29 26 21 25 22 23 24 17 12 8 10 9 7 10 7 15 16 19 26 29 30 28 24 21 21 20 20 18 17 17 16 15
39 39 36 33 33 36 34 33 29 25 26 23 22 22 20 18 18 19 13 9 7 6 9 9 8 8 9 11 8 6 8 8 7 6 5 3 12 9 14 15 14 16 19 19 19 19 19 18 17 17 17 16 15 14
33 32 31 29 29 29 26 23 21 21 21 21 20 20 18 15 10 10 8 7 8 7 6 5 5 4 2 4 4 6 8 7 6 6 4 7 8 6 4 10 16 17 19 19 19 18 19 21 22 22 20 19 17 15
14 14 13 13 14 16 17 18 18 19 18 18 17 16 10 10 14 8 7 7 6 6 7 8 7 4 3 4 4 6 6 8 8 6 6 8 7 5 11 14 13 17 20 20 20 22 24 23 22 24 24 22 20 19
13 14 16 17 17 18 18 19 19 19 17 17 16 13 9 9 9 9 12 10 9 8 8 9 9 7 7 9 7 5 9 8 7 8 14 11 10 10 13 13 17 23 23 23 24 28 29 30 29 27 26 28 29 29
17 16 16 17 18 19 19 19 19 19 18 18 10 11 16 10 10 13 13 12 12 12 12 12 13 15 16 10 9 9 7 9 8 8 2 9 16 24 32 30 35 37 38 39 38 40 39 35 34 33 33 33 33 35
13 12 12 14 15 16 17 18 18 18 22 23 21 16 7 8 13 13 11 11 13 15 18 18 16 14 15 10 15 15 15 18 23 22 25 33 39 44 44 47 44 44 45 46 44 44 42 42 40 39 36 37 39 41
10 7 10 11 13 14 16 17 19 21 19 25 32 31 30 28 28 26 21 20 20 18 18 21 15 14 13 15 25 22 38 41 37 39 42 36 39 38 43 44 44 45 45 48 48 44 42 40 41 42 44 45 46 46
8 10 11 12 13 15 17 19 21 22 31 35 35 34 34 33 31 28 26 26 28 29 29 29 27 27 26 32 45 47 45 46 45 40 39 34 37 43 42 49 49 46 44 44 44 44 39 37 39 39 40 40 42 45
13 14 13 13 15 16 17 21 24 29 34 36 37 38 38 37 36 34 31 30 30 30 29 27 21 30 43 45 43 43 44 45 47 48 48 45 44 48 54 54 51 48 46 46 46 44 38 37 40 39 40 40 41 40
17 15 15 14 16 18 19 22 27 29 38 39 40 41 37 38 36 33 29 27 28 28 28 34 41 45 46 45 45 46 44 44 46 46 50 51 51 51 50 47 46 44 45 46 49 44 43 45 42 42 41 42 43 42
21 18 18 19 20 22 24 27 30 31 36 37 37 36 38 37 35 31 29 27 32 31 34 38 41 41 42 46 44 40 40 36 36 34 39 45 42 42 43 43 43 43 41 41 44 43 45 46 47 47 48 48 49 44
25 23 23 23 27 28 32 33 36 36 36 42 45 45 46 45 44 42 39 43 43 41 41 43 42 38 39 38 37 35 36 31 36 41 42 42 44 45 44 41 39 40 42 42 42 40 38 39 43 46 46 43 42 39
26 25 26 26 27 31 34 35 37 40 45 47 45 46 50 51 49 42 47 47 45 42 41 41 40 38 40 38 34 31 27 28 33 35 37 40 43 44 43 40 41 44 43 39 32 33 33 35 38 37 32 34 37 36
26 28 28 30 30 26 34 37 39 39 41 43 45 46 47 49 47 46 49 47 44 42 39 40 41 40 36 34 34 32 31 31 34 34 32 36 40 40 37 37 34 34 34 27 25 29 29 32 33 35 39 40 39 39
29 26 33 24 33 36 40 42 42 41 44 45 46 42 45 44 40 43 42 43 42 43 43 37 39 38 32 28 29 31 32 35 30 28 21 29 29 34 35 34 31 32 25 27 28 32 32 33 34 35 38 40 42 43
27 28 22 25 33 38 39 38 42 45 44 42 44 45 47 45 43 43 51 52 49 46 44 40 33 30 30 31 34 32 29 25 27 29 28 31 32 28 29 29 25 22 22 29 31 33 32 34 36 38 40 40 39 40
32 33 32 35 38 37 33 39 41 38 35 43 47 47 45 43 45 52 48 44 45 44 44 42 40 41 42 43 39 41 38 42 43 37 35 35 35 34 37 35 33 30 30 30 33 36 38 38 39 37 38 39 37 37
38 40 42 42 41 41 41 40 41 44 47 48 49 48 50 54 59 53 49 45 43 41 42 43 44 45 43 43 45 46 49 43 40 42 42 40 38 38 38 38 39 38 38 35 36 37 37 39 39 36 35 36 33 34
45 47 45 44 45 44 45 47 50 51 49 51 55 56 57 53 50 51 45 44 44 44 44 45 45 43 41 40 41 44 47 48 43 43 45 44 40 36 35 33 33 34 35 35 35 37 38 38 36 33 32 32 29 31
44 41 42 46 48 50 50 48 50 45 46 47 49 51 53 51 48 47 50 50 50 51 49 48 46 47 49 50 48 47 43 40 40 41 42 41 37 37 38 35 33 33 33 34 35 35 35 34 33 31 30 30 25 26
41 42 44 45 46 40 36 34 40 42 42 44 45 51 54 51 54 55 52 52 51 51 51 52 52 52 53 51 49 46 45 36 38 39 37 37 38 40 38 35 37 38 34 32 33 34 32 31 31 29 30 27 21 20
37 37 36 39 44 39 43 44 45 47 44 43 42 40 41 42 51 59 46 43 40 40 43 45 48 53 48 44 41 38 38 40 37 38 37 36 37 35 33 33 32 30 29 28 28 28 26 29 29 28 29 24 19 19
40 39 39 42 43 36 32 39 39 38 38 42 44 44 47 49 52 42 36 38 42 44 37 31 28 27 31 31 32 32 30 33 34 36 36 34 32 29 31 33 29 25 24 23 23 24 26 29 28 27 27 22 18 18

GFSWCAN_700_spd_117.txt.gz
Wind_Speed
31 29 28 25 24 21 20 17 17 15 16 16 15 13 12 10 9 8 9 9 6 7 9 8 8 8 11 10 10 9 10 6 5 3 3 3 4 4 6 9 7 5 5 6 8 9 7 3 10 16 24 29 32 33
34 31 30 28 25 24 21 18 18 18 17 16 16 15 14 12 11 11 12 12 12 10 11 12 13 10 10 11 11 10 12 13 7 4 4 5 8 12 14 8 11 9 8 9 10 11 23 31 29 30 32 41 40 38
36 33 32 29 28 25 23 21 19 18 18 16 16 16 16 15 13 13 13 14 14 13 14 9 11 6 7 9 12 15 14 15 17 16 14 13 13 17 14 15 16 16 17 24 29 16 27 28 24 29 30 30 29 31
37 35 33 30 29 27 25 23 20 19 18 17 16 17 18 17 18 17 16 15 16 16 14 7 5 15 20 19 15 12 14 16 17 20 23 24 23 18 21 21 26 26 31 30 31 27 26 23 25 29 33 33 34 31
37 36 35 32 30 28 26 24 22 20 17 17 17 17 18 19 20 21 20 19 18 15 16 16 16 19 15 17 21 22 18 18 17 18 22 27 26 24 28 30 24 11 19 20 28 26 31 32 26 27 31 33 34 37
37 37 35 32 31 30 28 26 23 21 18 17 18 18 17 17 18 18 20 17 14 15 21 21 17 21 20 20 15 10 11 10 13 18 21 25 23 17 18 25 23 23 21 20 27 26 27 29 30 31 33 33 34 35
38 38 36 33 32 32 30 29 26 22 20 22 22 22 21 20 20 18 19 22 22 20 19 15 15 13 10 8 9 13 15 18 21 24 27 25 23 22 27 34 29 15 18 21 23 30 29 27 31 31 33 32 32 31
39 39 36 33 32 32 31 29 28 28 25 25 25 26 26 25 24 25 24 22 23 22 19 10 13 15 16 19 21 22 22 22 20 18 23 24 25 26 16 4 9 23 20 19 24 26 29 27 26 27 28 28 27 26
39 38 37 34 36 35 30 29 31 32 24 24 24 26 29 27 29 27 25 25 22 21 15 19 19 16 14 13 12 13 17 21 22 21 19 13 15 8 9 18 16 18 18 15 12 16 17 20 20 21 20 22 23 22
39 40 40 37 35 34 34 33 32 26 29 27 27 27 28 27 25 25 23 22 24 26 29 29 27 26 22 21 20 16 11 7 8 9 6 8 9 6 13 14 8 7 11 13 13 10 11 12 17 19 21 22 23 22
42 42 41 40 37 36 32 30 34 35 32 29 29 26 25 22 21 22 15 11 10 11 15 17 18 24 23 23 18 8 6 6 5 5 6 5 5 10 10 7 2 4 7 10 13 17 19 22 24 24 22 21 21 21
43 42 41 39 39 38 43 41 36 32 27 25 24 22 20 17 12 11 9 10 12 10 10 11 12 11 8 9 8 6 7 5 7 5 5 4 8 13 11 8 4 4 11 15 19 20 21 24 27 28 28 26 24 22
45 44 42 41 39 36 32 28 24 20 19 18 18 16 11 12 16 9 7 7 6 6 7 9 9 9 7 5 5 6 6 7 7 6 5 13 18 17 14 8 10 16 25 26 28 29 28 29 31 36 36 33 31 31
35 35 35 32 26 18 15 14 15 16 16 17 14 12 9 9 8 12 16 11 10 6 8 10 8 5 6 6 7 5 8 7 7 8 14 13 18 12 9 15 26 36 39 38 40 38 38 41 39 36 37 38 38 36
11 11 11 11 10 11 13 16 17 17 18 17 10 9 14 13 12 10 13 13 9 10 10 10 11 12 11 9 7 7 6 8 8 8 14 14 12 13 21 32 38 43 42 38 40 40 39 38 39 40 41 40 37 37
12 11 12 13 14 16 17 18 19 19 20 20 17 9 4 5 12 11 7 8 11 11 12 13 13 12 14 9 15 13 13 14 20 18 17 22 28 35 43 47 50 52 48 44 44 40 38 40 41 45 46 40 36 37
14 14 14 15 15 16 16 17 17 19 15 18 24 23 24 22 16 11 12 15 15 17 19 16 11 11 11 13 21 22 35 34 32 35 37 40 45 50 48 47 43 44 47 48 49 48 48 48 47 47 50 43 41 39
13 13 13 14 14 13 14 15 15 16 21 24 24 24 24 24 22 21 19 22 25 26 27 30 29 29 26 33 42 42 41 42 42 44 47 47 46 48 50 52 52 51 52 52 50 53 53 52 51 51 53 51 46 43
11 10 10 10 11 11 12 13 15 16 20 21 23 26 27 27 26 26 24 23 25 28 30 33 24 31 40 41 38 39 41 43 46 46 47 48 47 47 48 48 48 49 49 50 49 46 45 44 44 47 48 48 48 45
13 13 13 12 13 13 14 15 16 17 20 22 23 27 30 31 30 28 25 22 24 26 30 34 39 40 39 38 36 38 41 40 41 45 50 50 47 46 45 42 43 44 46 45 42 40 42 42 41 44 42 41 43 43
20 20 20 19 19 19 19 19 19 18 23 24 28 30 32 32 33 33 32 30 31 33 34 36 38 39 37 36 36 37 36 36 38 40 46 50 48 46 46 46 47 47 46 45 44 41 39 43 43 40 36 36 38 40
23 23 22 20 20 21 24 26 25 25 28 30 35 36 37 38 39 41 40 42 41 40 40 38 36 36 36 36 35 36 38 38 40 41 42 45 49 47 45 43 46 47 45 43 43 45 42 37 36 33 34 31 30 33
29 28 27 25 25 26 28 28 28 30 34 38 38 40 42 41 42 41 43 43 43 41 37 34 35 35 38 37 37 40 36 35 37 40 43 45 46 43 43 45 44 45 45 40 34 34 30 29 30 30 31 30 32 36
34 31 31 27 30 24 30 33 34 35 37 39 41 42 43 44 44 43 48 45 41 38 36 36 36 39 39 38 36 35 36 36 41 40 35 39 43 43 41 40 38 38 37 36 34 30 29 30 29 27 29 32 36 38
32 25 29 21 32 32 35 37 38 40 43 42 41 41 46 43 41 45 50 48 44 42 39 37 36 35 37 35 33 31 25 26 32 35 38 32 33 33 34 36 38 31 29 31 27 30 29 28 30 31 33 35 34 35
30 25 18 29 35 36 38 41 41 42 40 40 42 44 46 47 44 41 45 43 43 42 41 38 37 37 39 40 40 38 37 37 39 41 43 42 37 37 37 37 38 39 25 29 29 26 22 26 31 32 33 34 36 38
22 17 26 34 35 35 34 37 38 36 37 41 44 42 41 39 44 54 48 43 42 43 39 40 42 43 43 43 43 43 42 41 44 46 45 43 41 42 38 38 37 31 32 30 29 31 29 32 32 34 35 35 36 36
35 36 36 36 39 39 38 37 39 44 47 48 47 47 49 52 57 52 50 43 40 42 43 43 44 45 46 45 45 45 46 45 46 46 44 43 46 45 39 37 36 32 30 31 32 31 32 34 35 36 38 37 36 33
39 36 36 39 41 41 41 45 48 48 44 48 52 53 54 52 52 48 46 47 48 49 51 53 54 54 55 53 52 50 49 46 46 47 46 46 47 46 41 42 39 34 34 33 29 30 33 35 35 37 37 36 33 32
32 33 36 39 42 45 43 42 43 42 45 47 50 52 50 50 51 49 50 51 51 51 49 48 48 49 50 50 51 52 50 50 50 51 51 50 47 44 43 40 35 34 35 34 32 33 34 36 38 38 36 34 29 29
37 40 41 42 45 42 39 37 41 40 38 41 42 47 52 53 54 45 44 45 48 49 46 44 45 43 43 46 47 49 53 48 49 49 47 45 41 40 38 38 38 35 36 35 32 32 34 34 34 34 31 27 27 27
31 34 37 40 39 36 41 43 44 46 45 40 37 34 34 38 50 51 43 42 42 40 38 39 38 38 36 39 41 42 43 44 47 43 39 39 37 33 32 35 36 36 35 32 28 28 30 31 30 26 25 25 25 23
35 36 37 38 39 37 37 41 40 36 32 34 35 36 36 35 42 47 40 37 35 36 39 37 36 36 36 35 36 37 38 39 37 35 32 34 33 30 29 31 33 32 29 24 25 28 27 24 22 20 21 22 21 20

GFSWCAN_700_spd_120.txt.gz
Wind_Speed
36 34 32 31 28 25 23 20 19 17 16 15 17 17 14 11 10 10 9 7 8 10 11 8 11 9 9 11 11 9 8 4 4 3 2 2 2 3 4 6 6 5 5 5 5 8 4 4 19 16 26 31 35 36
39 37 35 33 31 27 25 23 21 19 17 17 15 17 16 13 12 12 12 13 11 10 12 13 14 11 10 8 8 10 9 9 5 5 3 3 5 9 9 6 7 6 8 5 7 8 22 23 21 33 36 37 35 35
42 40 37 35 33 30 27 25 23 20 19 17 17 16 16 15 13 12 11 12 14 14 14 9 11 13 8 7 10 12 14 16 15 15 17 13 9 11 10 8 11 11 13 19 22 6 20 32 22 24 25 31 36 36
44 42 38 36 35 31 29 26 24 22 21 20 17 17 16 15 16 16 17 16 15 15 17 12 6 5 12 19 21 16 14 15 16 16 17 20 19 15 15 18 21 20 26 24 25 22 25 20 21 25 24 27 31 32
46 44 40 38 35 33 32 29 25 24 22 21 19 17 16 15 15 16 16 17 16 14 15 17 18 19 20 16 17 19 18 19 19 19 19 18 19 19 24 24 16 8 13 18 26 28 24 21 22 26 26 28 31 35
48 45 41 39 36 33 33 31 27 25 23 22 20 18 17 16 16 16 17 15 13 13 17 19 17 20 24 25 23 19 12 12 15 16 16 21 20 17 15 17 13 14 16 21 16 21 23 25 25 30 32 33 33 33
46 43 45 41 36 33 32 31 29 26 25 23 22 20 20 20 19 19 18 20 20 20 21 15 18 15 13 13 12 10 12 11 12 16 21 23 22 19 22 25 18 14 7 15 17 17 14 18 19 21 23 22 22 23
48 45 41 38 36 34 32 32 30 29 27 26 25 23 22 23 23 23 24 24 23 23 22 11 16 18 16 15 17 19 19 20 21 20 23 19 19 20 11 7 8 11 11 12 13 15 16 14 14 15 18 19 20 22
40 36 38 37 34 32 33 33 31 31 27 23 27 24 23 22 23 24 25 26 26 23 16 18 21 19 15 15 15 13 13 15 19 22 22 16 18 10 10 11 15 9 6 9 8 9 11 12 13 16 18 19 21 22
51 42 36 36 36 37 35 32 32 31 26 26 28 22 26 23 23 25 25 25 25 27 29 29 28 25 22 22 18 12 11 10 7 9 9 12 16 14 17 16 12 8 6 5 7 10 13 14 17 21 24 26 27 26
37 41 35 34 37 37 35 31 32 30 31 27 25 28 27 24 23 23 16 11 10 12 18 22 24 28 27 24 22 11 7 6 5 8 9 7 9 15 14 13 12 11 9 10 12 15 20 23 26 31 32 32 31 28
39 39 41 46 42 34 37 34 31 29 29 29 31 28 25 21 14 11 8 9 13 11 13 13 16 14 14 15 11 7 8 6 6 5 6 4 12 17 16 17 15 12 10 12 16 22 28 33 37 39 39 39 38 36
45 44 42 36 41 40 35 36 35 34 33 38 29 20 12 13 16 10 10 11 9 10 10 10 10 10 7 8 6 5 5 6 5 6 6 12 16 20 22 19 17 17 17 20 25 32 37 42 45 46 45 39 36 35
53 49 49 45 46 43 41 40 40 39 37 23 13 11 10 10 11 15 18 14 14 12 10 10 12 9 9 6 6 5 7 5 6 8 15 12 12 18 21 24 25 26 27 31 37 41 46 50 52 50 45 44 42 41
36 39 42 43 41 39 38 33 30 26 20 14 10 9 15 16 13 10 12 13 14 13 12 12 12 11 10 8 7 7 6 7 7 7 8 12 22 27 27 29 29 30 35 41 48 53 58 57 55 54 49 48 47 48
33 32 32 30 28 27 25 21 16 14 15 14 12 8 8 8 12 13 8 9 11 13 13 13 10 6 10 9 12 13 11 9 9 13 15 19 25 26 29 33 38 45 52 58 59 58 56 55 54 53 54 52 51 52
20 18 18 17 14 12 11 13 15 17 14 11 10 16 15 10 3 2 5 7 9 12 14 14 9 9 11 15 17 18 31 30 31 34 36 37 41 47 49 51 54 56 57 57 56 54 54 52 51 51 51 48 46 46
14 13 13 13 13 14 15 16 17 17 18 18 15 11 11 13 14 14 14 15 16 17 19 19 23 26 22 27 34 37 37 37 40 42 44 47 48 47 48 50 51 52 53 53 53 54 52 49 46 44 42 42 43 44
17 17 17 16 15 15 15 16 18 13 15 13 9 8 9 11 12 14 17 20 23 25 29 33 25 32 41 42 41 39 36 37 41 43 45 46 46 46 47 47 48 49 48 49 50 51 48 45 43 40 43 44 43 42
19 17 16 15 15 15 13 11 13 14 11 9 12 12 12 13 13 15 16 18 20 25 32 39 45 45 45 44 42 40 40 40 40 44 48 49 46 44 46 45 46 49 50 50 50 49 47 46 43 42 44 41 41 40
18 18 18 18 17 16 15 11 12 14 15 16 17 18 21 19 22 22 19 21 25 31 36 37 38 38 37 37 38 39 41 39 39 40 44 47 45 45 47 47 49 50 51 50 47 44 44 45 43 37 36 34 31 33
18 18 17 17 17 17 18 20 19 19 18 23 25 25 25 26 28 26 25 29 32 34 31 30 30 29 32 33 32 31 34 36 38 39 40 43 46 46 47 48 50 52 50 47 46 49 49 45 34 32 30 28 29 32
22 23 22 21 21 19 20 24 24 24 25 29 30 30 29 30 33 32 32 33 38 35 33 33 33 32 33 34 34 35 34 36 39 42 42 41 43 46 49 48 46 46 46 43 40 41 42 36 31 33 34 33 32 32
28 30 30 24 26 23 28 29 29 28 28 30 32 35 36 35 36 38 42 43 41 39 37 34 30 32 31 32 32 32 33 33 35 39 39 41 42 42 42 42 41 37 37 38 35 33 37 36 32 32 28 30 32 33
37 32 32 28 34 32 34 32 31 31 32 34 35 33 37 38 33 40 47 47 41 37 35 32 31 32 34 33 33 34 34 35 39 42 43 42 42 44 46 50 49 47 40 38 35 33 33 32 31 28 29 29 31 32
40 28 28 34 37 36 37 36 36 36 35 36 36 35 40 35 37 41 48 43 40 37 36 35 37 40 41 40 41 41 42 41 42 44 43 42 46 49 52 53 54 52 43 39 38 37 33 31 31 31 28 29 33 34
33 16 27 37 36 33 35 36 35 34 31 33 36 34 30 31 43 51 43 42 43 45 43 40 41 43 46 46 47 49 48 47 47 49 47 47 47 48 49 51 50 44 42 40 40 41 34 31 31 33 33 32 33 33
27 35 41 40 33 32 34 32 32 33 35 38 41 42 41 43 49 48 48 49 48 43 42 44 47 49 52 54 55 55 54 53 54 55 56 56 54 51 51 49 45 40 36 35 35 39 37 35 35 36 36 35 34 32
21 24 25 28 29 30 32 34 37 38 36 39 44 45 45 46 50 50 45 42 44 48 53 53 50 47 50 51 52 53 53 51 50 51 51 52 51 49 45 45 44 40 40 42 37 37 39 39 38 36 36 36 36 35
37 35 34 33 34 35 34 35 35 31 34 38 42 47 49 49 47 46 48 50 46 42 43 45 48 47 49 46 48 46 41 41 42 43 46 50 50 47 43 43 43 41 40 40 40 35 35 38 37 35 33 33 35 34
28 27 28 30 31 28 25 27 31 33 37 41 40 42 47 48 50 46 40 37 38 33 43 46 44 40 40 40 40 42 46 41 40 39 40 41 41 40 37 35 33 33 33 34 36 31 31 34 32 31 28 29 31 31
22 20 22 25 25 25 29 33 36 38 37 38 40 41 41 38 39 41 35 35 26 35 39 40 41 37 31 34 35 35 36 37 38 39 39 39 40 38 34 29 30 30 29 30 31 25 27 30 28 27 27 26 25 22
26 27 28 30 31 30 30 33 34 34 33 33 34 31 30 32 40 38 31 32 31 36 37 41 43 39 36 35 37 38 37 36 36 31 29 31 28 28 28 25 26 28 28 28 27 22 23 26 25 23 21 20 19 18

GFSWCAN_700_spd_123.txt.gz
Wind_Speed
39 37 35 33 29 26 24 22 20 20 19 17 16 15 12 10 10 10 10 10 11 11 12 5 10 7 8 7 8 8 7 5 5 4 3 3 3 3 4 5 4 5 5 6 8 8 3 9 12 11 18 30 32 30
41 40 38 36 33 30 27 25 23 22 20 19 17 17 15 13 11 11 10 11 10 10 13 14 13 12 7 7 7 5 7 7 4 4 4 4 4 5 5 4 6 6 9 5 7 3 6 16 17 22 32 28 28 32
45 43 41 39 36 33 30 28 25 23 22 21 18 17 16 16 14 13 12 11 11 12 13 10 11 13 14 9 6 7 10 12 13 13 14 12 11 11 7 6 8 10 14 17 13 7 6 18 22 23 25 26 26 29
49 45 43 41 38 37 33 30 27 24 23 23 20 19 18 16 16 13 14 14 13 14 16 13 8 6 10 11 15 19 18 13 14 15 16 18 16 13 14 13 16 19 21 20 22 20 18 16 17 20 20 23 26 27
47 47 46 42 38 40 36 33 30 26 25 23 22 20 19 17 16 14 12 12 12 11 13 14 16 18 17 17 20 19 17 18 17 19 19 17 18 15 19 24 20 9 16 16 15 16 20 15 17 17 18 20 24 26
45 49 48 43 46 43 39 35 31 28 26 24 23 22 20 19 18 16 14 11 7 9 14 17 14 19 20 21 24 25 23 22 22 20 17 19 20 15 14 20 15 14 15 19 19 17 17 17 21 23 22 21 21 22
40 45 51 47 47 44 40 36 32 29 27 23 24 23 23 21 19 17 17 18 17 16 17 13 16 13 12 12 13 14 13 10 12 15 18 19 18 18 26 29 22 23 18 11 10 10 11 11 13 14 14 15 17 20
40 41 51 48 47 44 38 36 33 30 27 24 25 23 24 23 22 20 20 20 21 20 20 9 16 21 19 16 16 15 14 16 19 18 22 21 20 21 16 15 15 9 11 11 9 8 8 8 7 9 12 13 15 19
44 43 49 47 45 40 40 36 31 31 26 27 25 24 26 24 23 22 21 20 20 20 17 21 24 22 16 15 15 15 15 14 16 20 21 16 22 13 12 17 12 13 13 10 10 9 8 7 9 13 16 20 23 25
43 43 45 47 47 40 35 33 32 31 32 28 26 22 26 24 22 20 21 23 24 25 28 29 30 29 25 23 16 12 10 11 9 13 12 17 26 21 16 15 15 14 14 14 15 14 15 16 18 20 24 28 33 35
40 36 46 48 43 39 39 33 29 30 27 28 29 23 22 22 20 20 15 10 9 13 19 23 24 27 26 22 20 11 8 7 6 9 12 7 11 16 17 19 18 18 19 20 20 21 22 23 26 28 30 34 38 43
39 38 35 40 40 35 36 39 38 29 29 29 29 25 24 20 14 10 9 9 11 12 15 15 14 15 15 16 14 10 12 8 7 7 7 6 13 13 15 20 22 23 22 23 23 22 22 25 30 35 39 43 47 51
36 41 44 42 42 41 43 38 44 39 32 33 29 26 12 13 17 11 13 12 11 13 13 12 11 10 8 8 7 6 7 7 6 7 7 9 10 16 22 24 24 25 26 27 27 29 30 32 34 40 46 51 56 59
41 41 43 43 36 45 43 43 39 41 41 35 29 16 13 11 12 18 23 19 19 18 15 12 11 10 10 9 8 6 8 6 6 8 7 7 14 23 26 28 29 30 32 34 36 37 39 42 46 49 51 60 61 59
49 41 37 39 38 43 41 40 42 42 40 35 22 12 19 19 17 12 13 15 18 17 15 13 14 14 12 9 7 8 6 8 8 5 7 12 17 22 26 30 32 34 36 39 41 45 48 51 54 56 62 59 56 54
44 46 46 48 48 41 39 39 36 34 36 27 20 15 12 13 16 15 14 14 14 14 13 13 12 8 11 8 9 11 7 6 5 9 14 17 20 27 30 33 35 38 41 45 50 55 58 61 62 60 58 55 50 46
37 39 40 38 39 41 38 38 34 32 21 13 12 15 10 12 9 8 9 8 7 9 13 11 7 10 6 9 11 14 20 20 25 26 27 24 25 29 34 40 47 53 55 56 55 55 55 55 55 56 55 53 47 45
29 30 31 32 39 40 39 39 30 17 11 12 12 11 13 12 12 11 10 10 12 15 18 19 19 21 15 21 25 28 28 30 33 36 39 44 48 50 52 51 50 52 54 54 53 54 53 52 52 51 49 46 46 44
27 29 27 28 25 24 21 17 14 7 11 11 9 9 10 11 13 14 15 16 18 19 21 23 18 25 34 37 38 37 37 38 41 45 49 51 52 50 50 49 50 51 51 51 52 52 50 49 48 44 39 40 42 41
20 20 19 19 20 18 11 9 14 10 9 11 13 13 10 8 6 5 5 9 12 17 22 27 31 33 36 38 40 44 47 47 47 49 51 49 48 47 48 49 49 48 49 51 50 48 47 45 42 40 39 40 40 35
18 18 19 19 20 20 11 9 12 10 13 13 11 9 10 10 11 11 10 12 14 17 22 23 26 27 28 33 34 35 39 36 38 40 43 46 45 45 46 47 47 47 48 47 46 43 44 43 40 36 35 37 34 34
16 16 17 17 16 16 13 12 10 11 10 11 12 14 17 17 17 16 13 16 19 20 23 26 29 30 31 33 34 34 38 39 40 41 42 44 46 49 49 48 48 49 47 45 43 43 39 37 36 35 35 35 36 34
17 17 15 15 13 12 12 16 16 16 14 16 17 19 20 20 18 17 19 20 26 26 28 30 27 27 31 33 35 36 36 38 40 42 43 44 46 47 47 46 45 44 46 45 43 42 42 41 39 39 40 35 32 34
19 19 19 13 15 16 17 17 17 18 20 23 24 22 23 22 22 23 29 31 29 30 31 28 26 29 31 34 36 37 39 40 41 42 42 45 45 44 44 45 46 46 46 44 44 46 47 49 45 38 39 39 36 35
24 21 22 24 25 24 27 27 27 27 29 27 24 22 23 25 27 33 36 36 35 32 32 28 28 31 37 40 41 42 40 42 42 43 44 46 48 49 50 49 49 47 43 43 44 45 44 44 41 38 39 39 38 36
31 27 25 32 35 35 35 33 34 34 33 30 27 28 29 30 31 38 38 34 37 38 34 35 38 41 43 43 43 42 42 43 48 51 50 49 51 52 52 52 51 51 47 47 46 46 43 40 38 33 35 37 38 38
29 16 30 42 42 40 38 39 37 36 31 31 32 30 28 25 34 43 39 38 36 37 41 40 38 39 40 44 46 47 49 49 49 50 50 50 50 50 52 52 52 48 43 42 45 45 44 39 35 31 33 35 37 38
17 23 37 41 36 35 39 39 40 36 35 36 34 34 30 32 39 39 39 39 40 42 44 41 42 49 46 39 42 46 47 46 47 47 50 51 49 48 48 48 48 47 45 41 40 38 37 36 34 35 34 35 38 37
22 17 15 21 27 33 35 36 39 38 37 33 34 37 38 36 40 41 42 44 47 48 48 49 37 38 41 44 44 48 44 39 40 42 45 48 49 46 41 43 43 41 39 40 39 38 36 37 38 39 37 35 36 35
20 21 25 29 24 28 28 33 31 22 24 28 30 34 37 40 43 45 48 48 44 40 34 33 39 41 40 39 47 47 37 32 34 38 42 43 41 38 37 38 38 35 33 32 34 35 35 36 36 35 33 35 32 29
29 27 27 27 19 18 15 19 23 24 24 26 31 37 42 45 46 40 42 37 32 27 33 35 36 33 38 41 40 42 43 35 36 39 40 42 42 39 39 36 33 34 34 30 29 31 31 31 30 28 28 29 23 23
24 25 24 30 23 18 17 18 21 25 28 32 35 37 38 37 38 39 36 33 36 34 29 29 29 33 34 37 41 40 42 40 39 40 41 42 39 40 37 31 29 30 28 26 25 25 25 25 24 22 21 18 18 19
18 16 15 16 19 20 21 23 27 31 35 35 34 30 27 31 37 43 39 31 25 26 28 30 33 34 36 38 42 44 40 38 39 41 40 38 36 34 31 28 24 21 21 18 18 21 22 22 20 20 19 16 15 17

GFSWCAN_700_spd_126.txt.gz
Wind_Speed
39 37 35 32 30 27 25 25 23 21 19 17 15 13 12 11 11 11 10 9 9 10 9 3 8 7 7 7 8 6 5 5 5 4 3 3 4 5 4 7 5 6 5 6 8 7 4 10 8 6 10 16 25 23
37 43 38 36 33 30 28 27 26 24 21 20 17 16 14 13 12 11 10 10 10 8 11 12 12 10 8 7 7 7 7 4 3 4 4 4 5 6 6 5 9 7 10 2 6 3 3 12 14 19 20 26 24 25
33 38 44 40 37 33 31 29 29 26 24 23 20 19 17 15 14 14 13 12 12 12 12 11 9 11 11 11 10 9 7 9 12 13 13 11 10 12 9 10 10 8 11 13 11 11 10 14 17 25 23 23 22 25
38 34 39 42 40 36 33 32 30 28 26 24 22 21 19 17 17 15 14 12 12 12 14 13 10 6 9 11 9 15 15 16 15 15 17 17 17 13 15 16 15 14 16 17 18 17 20 19 19 19 19 20 20 22
41 36 34 36 43 40 36 34 32 30 27 26 25 23 21 19 19 17 16 13 11 10 11 13 12 13 13 13 15 16 19 19 18 18 19 19 20 18 22 23 25 19 22 19 17 12 12 15 15 15 16 17 16 15
45 42 39 34 38 41 40 37 34 31 29 27 27 25 23 22 19 18 17 15 13 10 11 14 11 15 17 18 18 20 22 23 23 22 21 22 22 16 13 16 14 10 13 15 18 20 20 16 14 11 12 14 16 16
50 47 43 39 36 43 39 39 36 34 30 30 29 26 25 24 21 19 18 16 16 17 16 12 14 10 9 14 16 16 17 16 18 20 21 20 18 16 24 29 26 24 21 20 19 16 15 16 16 15 15 14 14 15
55 51 46 44 40 38 44 40 40 34 32 33 30 26 26 25 23 20 20 20 19 18 16 10 15 20 20 20 18 18 16 15 16 16 19 19 20 23 21 24 20 17 18 16 13 15 15 16 16 15 14 14 15 17
51 54 51 47 42 40 46 40 38 35 35 33 29 27 28 27 25 22 21 22 22 20 14 17 20 20 16 18 16 15 16 16 18 21 24 19 22 17 15 15 15 14 11 13 15 16 16 16 16 16 18 20 21 24
49 53 51 49 43 39 42 44 37 39 34 31 29 28 27 27 23 22 22 23 25 25 27 26 25 28 25 24 19 14 11 12 10 15 16 20 28 27 22 19 18 18 17 17 18 19 19 20 20 22 25 26 30 33
50 50 53 51 46 40 40 42 40 36 36 36 29 31 27 22 18 17 15 13 13 15 17 21 23 27 23 21 20 11 8 7 7 10 14 10 18 19 16 21 21 20 21 21 22 24 24 26 28 30 31 33 36 39
48 52 54 50 46 40 40 46 47 46 40 38 34 32 26 27 19 11 16 14 12 16 14 17 17 15 14 14 14 9 12 8 8 9 9 8 21 19 16 19 21 23 24 26 27 28 29 30 33 35 37 39 42 45
52 57 52 50 43 39 43 49 49 51 43 35 42 33 22 15 18 16 18 13 18 18 19 17 14 13 11 9 9 8 7 9 8 7 8 13 14 16 19 20 22 24 26 28 29 31 33 36 39 42 44 45 49 54
54 51 43 41 37 43 49 50 47 45 42 43 32 22 19 10 16 32 26 24 23 17 15 14 13 11 12 10 9 6 8 7 6 7 7 10 15 19 20 22 24 27 30 32 34 36 38 42 45 46 48 52 56 60
52 47 41 40 40 44 46 47 49 49 45 40 30 13 25 29 22 20 24 27 21 19 17 14 13 12 11 9 8 8 6 8 8 3 5 7 12 14 16 19 24 29 32 36 39 41 43 46 49 51 55 59 60 59
50 43 47 41 40 39 45 50 45 44 46 36 26 22 23 25 26 23 20 19 17 14 13 12 11 8 11 8 10 12 8 6 4 5 6 10 14 19 23 26 31 35 39 42 44 46 49 54 59 60 57 54 54 54
46 49 49 49 51 47 41 41 41 44 39 32 33 36 27 26 27 26 20 14 14 14 14 10 9 10 7 8 10 11 12 13 15 19 22 21 19 24 31 36 38 41 44 47 52 59 61 56 57 54 55 53 51 51
44 51 48 46 44 44 45 47 42 33 24 28 27 26 22 20 18 16 17 15 12 12 14 14 10 12 7 11 15 21 24 27 30 33 34 33 34 38 42 47 51 54 56 57 59 58 55 55 52 50 48 47 47 45
32 39 43 47 45 48 48 46 46 21 20 21 19 27 28 18 16 15 14 13 13 12 13 15 12 14 18 22 23 27 30 34 38 41 44 47 49 50 52 52 53 53 52 52 52 51 49 46 44 42 44 44 43 39
40 43 45 46 47 48 30 21 36 21 22 24 22 19 17 16 14 15 16 15 14 13 14 14 13 13 17 19 23 27 31 33 37 41 45 45 45 46 47 47 47 46 46 45 45 44 43 44 40 41 43 39 35 34
29 34 37 37 38 33 16 19 17 21 21 22 21 21 18 16 16 16 14 13 12 12 8 9 12 16 19 24 27 31 34 35 39 41 44 47 46 46 47 47 46 46 46 47 47 47 45 44 42 42 38 35 33 37
19 25 28 29 30 22 15 17 16 20 17 21 21 19 19 19 18 16 14 19 20 13 12 15 18 22 26 30 33 35 37 37 38 39 40 41 44 45 45 47 47 48 47 46 46 47 47 45 43 43 42 39 39 40
12 13 13 13 12 9 10 15 16 17 12 18 20 19 18 17 16 15 18 20 18 17 16 18 22 28 31 35 38 38 36 36 37 38 40 43 46 47 47 48 47 48 48 46 45 47 47 45 42 42 43 42 43 41
14 12 12 10 10 9 10 11 15 15 15 16 16 15 13 13 12 15 22 25 21 19 20 24 29 31 35 38 39 39 39 39 41 41 39 42 43 43 44 46 46 47 50 50 49 48 47 44 41 40 39 38 38 39
15 11 9 12 13 13 16 15 15 15 17 16 15 14 15 14 17 21 26 30 24 22 22 28 32 34 37 38 40 38 32 31 35 40 41 42 46 48 49 48 50 51 51 52 50 50 49 48 47 46 44 42 40 38
17 11 10 15 20 21 23 21 21 23 23 21 17 19 20 21 24 26 33 33 27 26 28 32 34 35 38 40 38 35 33 38 43 41 40 42 49 50 49 49 50 50 47 46 47 49 50 48 46 44 43 41 37 38
20 19 24 27 30 31 28 28 28 27 22 18 22 23 23 22 25 32 36 27 27 30 32 36 39 41 44 45 41 39 40 36 38 43 46 50 53 47 44 45 46 46 43 43 43 42 42 41 41 39 40 37 34 35
18 20 32 36 33 31 32 33 33 33 29 30 31 31 25 26 34 32 31 32 30 33 38 41 44 45 41 36 38 36 35 38 41 41 46 52 46 40 37 39 40 40 40 38 37 38 39 39 38 36 37 35 33 34
20 14 10 16 22 27 31 34 33 31 32 33 33 35 38 37 31 30 28 30 34 40 43 45 38 35 34 32 34 35 37 35 38 43 49 52 49 42 37 40 40 41 39 37 35 35 34 33 34 35 35 34 33 33
22 17 19 21 25 26 23 23 19 18 23 22 22 27 29 29 28 29 31 35 40 41 34 34 31 28 33 37 39 39 34 35 37 41 44 46 47 44 42 42 41 39 36 38 39 37 33 33 33 32 32 32 32 31
27 26 27 29 27 25 21 14 15 18 21 23 23 27 30 32 31 30 34 38 32 29 31 32 30 34 36 34 32 36 39 37 39 41 42 43 45 47 43 41 40 39 37 36 34 32 32 31 29 28 26 25 23 22
22 25 26 25 23 18 19 22 21 24 23 24 26 29 31 35 39 41 32 27 29 31 28 31 31 31 27 30 32 33 35 37 38 40 41 43 44 44 42 37 39 36 32 29 29 27 25 25 26 24 20 16 14 17
9 10 11 13 15 16 17 20 22 24 27 28 30 32 35 36 35 29 26 26 30 31 31 28 24 26 31 32 33 36 37 38 38 40 44 41 37 39 39 38 36 32 28 22 20 19 17 16 15 13 12 12 13 15

GFSWCAN_700_spd_129.txt.gz
Wind_Speed
32 38 34 33 32 30 28 27 26 24 21 19 17 14 13 12 9 10 10 10 9 10 9 6 6 9 8 8 8 6 6 6 6 6 4 4 4 5 4 7 4 7 6 6 9 7 7 7 12 11 7 10 14 17
34 31 32 38 35 33 30 29 28 27 25 22 19 17 14 14 13 11 11 12 12 10 11 11 10 11 11 11 9 9 8 4 5 5 5 5 5 5 7 3 8 9 11 5 9 7 8 8 13 14 14 19 20 21
39 37 34 32 38 34 33 31 29 29 28 25 22 20 17 16 15 15 13 12 13 14 14 13 9 9 10 11 11 12 12 12 10 10 12 11 10 11 8 12 15 14 14 13 11 11 17 17 18 20 20 23 21 19
40 37 36 34 29 38 40 34 32 32 31 28 25 23 20 18 17 16 15 14 13 14 15 14 14 12 8 9 11 10 14 16 15 15 16 17 17 14 17 17 16 18 14 14 17 16 17 20 23 23 21 21 18 16
44 40 36 34 33 31 34 39 34 34 33 30 27 26 24 21 19 18 16 15 14 13 14 13 13 13 13 14 14 15 16 18 22 22 21 20 21 20 24 25 28 20 24 22 22 21 18 19 17 18 20 18 15 14
42 44 38 36 36 29 26 32 38 35 35 33 30 28 26 24 21 20 18 17 16 16 17 15 13 12 13 16 17 15 16 20 23 24 25 25 26 20 14 20 17 11 16 18 20 21 20 19 19 19 17 15 14 15
51 45 42 43 36 33 30 26 32 38 36 34 32 30 28 26 24 21 18 14 14 15 15 13 18 16 14 10 11 15 17 18 20 22 25 27 27 19 25 27 22 20 22 23 24 24 24 23 20 16 15 15 16 19
46 50 48 47 41 38 35 32 28 40 35 35 34 32 30 28 26 24 23 20 19 20 19 13 17 20 19 18 18 18 18 19 21 20 24 23 20 22 24 25 26 26 25 24 23 23 23 20 18 18 18 19 21 22
43 45 49 48 46 42 40 35 31 35 37 36 36 34 32 31 27 25 25 22 22 23 16 17 20 20 19 19 16 17 18 18 19 22 25 22 25 24 23 22 20 18 18 16 17 17 18 18 19 20 21 22 23 24
43 43 49 50 46 47 46 39 35 29 38 39 35 36 36 32 27 26 25 25 27 28 30 29 27 27 24 25 23 17 11 12 13 16 18 24 32 26 28 28 26 23 19 17 17 18 20 22 23 24 25 26 29 32
43 43 46 50 48 47 47 42 39 32 40 40 42 40 38 29 27 25 19 14 14 19 26 31 29 33 31 27 24 13 8 7 7 10 15 11 21 24 22 21 22 22 20 19 19 20 22 24 26 28 29 31 34 38
44 44 45 49 51 47 48 47 46 41 44 48 40 36 34 33 26 20 26 21 22 19 24 17 23 30 31 26 20 11 13 8 8 10 8 9 20 20 21 20 19 19 20 21 22 23 25 28 30 31 33 35 38 42
46 47 47 50 52 50 48 51 49 44 46 47 42 37 21 16 15 18 22 21 22 28 24 21 26 22 19 18 13 10 9 10 9 8 8 14 17 17 16 16 18 19 21 22 23 26 28 30 33 36 40 42 45 48
48 48 48 53 52 53 53 56 48 54 55 47 43 29 25 14 19 35 29 29 31 28 26 22 18 17 16 14 10 7 10 7 6 7 8 12 11 12 15 17 19 21 22 23 25 27 30 33 38 41 45 48 51 54
46 48 51 51 51 54 54 53 51 48 55 43 30 20 30 33 26 20 24 29 32 26 27 19 19 18 15 11 9 9 6 7 7 4 5 6 7 11 16 19 21 22 24 27 30 33 38 42 46 48 50 53 56 61
42 47 50 53 52 56 56 52 57 56 54 32 27 21 26 28 31 36 35 27 25 33 23 18 15 9 12 8 10 11 7 7 4 5 6 7 8 12 18 22 25 28 31 35 39 43 46 49 52 55 58 61 60 54
45 50 51 55 53 58 57 53 57 55 45 31 31 35 34 31 31 27 28 32 33 31 26 15 12 11 9 9 11 11 9 9 10 13 16 18 18 20 23 28 32 36 40 44 47 49 53 57 60 59 55 50 45 47
47 53 55 59 60 56 55 58 52 35 22 38 40 40 40 37 31 31 30 31 30 27 25 24 18 16 9 10 10 6 9 14 19 24 28 29 30 32 36 40 43 46 51 53 52 50 49 49 47 45 45 45 44 45
55 51 48 52 54 54 65 51 50 27 32 35 37 36 36 35 35 29 28 28 22 19 21 24 12 18 21 17 14 14 16 18 22 26 30 33 36 38 40 41 42 43 44 45 45 45 45 44 44 44 44 44 46 44
55 54 56 53 55 55 32 22 45 29 26 27 28 29 30 29 27 25 23 21 20 20 21 22 21 17 15 12 10 11 14 18 27 31 31 31 33 36 38 39 41 42 43 43 44 44 45 45 44 42 41 41 41 40
54 60 63 60 61 48 16 22 26 22 24 28 33 31 28 26 24 22 20 20 23 25 20 15 13 12 11 11 14 17 19 25 29 32 35 37 36 36 38 40 42 45 46 47 47 46 42 41 39 38 39 39 40 42
31 33 35 40 41 19 11 17 22 25 25 30 35 30 25 20 18 19 19 22 20 16 15 14 15 17 18 16 18 21 25 30 34 35 36 37 40 41 43 44 44 44 42 42 44 46 46 45 45 45 46 46 44 42
18 21 25 28 21 8 21 26 27 26 25 29 27 23 21 20 22 20 23 20 18 16 15 16 20 21 22 22 24 25 29 33 35 36 37 39 39 40 40 39 40 42 45 47 50 52 52 50 49 49 49 48 48 48
21 24 16 7 8 16 27 22 21 19 23 26 25 23 22 22 21 23 24 18 12 14 16 16 20 24 27 28 29 30 32 33 34 32 30 33 37 40 42 40 39 43 48 54 51 47 46 47 47 47 46 46 45 45
8 7 8 12 15 15 14 17 17 18 18 24 21 21 18 16 17 21 20 14 14 14 17 22 25 26 29 32 32 34 35 36 39 41 38 40 41 42 41 41 44 45 50 47 44 43 43 44 45 45 43 41 40 41
3 2 5 8 10 10 10 11 12 12 12 13 12 16 15 15 16 17 20 17 14 19 21 22 25 29 32 34 38 38 40 40 41 42 42 40 39 41 44 44 45 50 44 41 43 45 45 45 45 43 42 40 39 38
10 7 11 12 10 8 8 9 11 10 9 9 12 14 13 13 17 23 23 23 25 21 22 27 29 31 34 35 38 41 42 43 44 42 41 38 38 42 41 41 46 50 47 45 43 45 47 48 47 43 42 40 38 37
19 20 19 16 16 15 15 16 16 15 13 17 19 18 11 14 23 25 25 26 27 30 31 27 30 31 34 38 40 39 41 42 39 38 39 42 44 42 40 42 46 48 46 45 43 43 45 46 44 42 41 43 39 34
18 21 22 20 18 17 19 20 21 20 20 19 21 22 24 26 26 25 26 28 28 27 28 29 28 33 35 35 34 34 36 37 38 42 44 46 46 46 42 45 47 45 44 46 40 40 41 42 41 42 40 39 36 34
8 9 7 8 10 12 12 11 11 12 16 19 20 22 25 26 24 25 26 26 27 28 28 31 33 31 31 35 35 35 37 37 35 35 38 43 45 47 47 49 46 46 46 46 40 39 37 35 33 32 31 30 32 31
19 19 19 20 21 18 13 14 15 19 21 21 20 22 21 24 21 20 23 24 28 29 35 29 25 29 35 37 35 34 33 30 31 33 35 38 41 43 43 42 42 42 38 38 36 38 36 32 29 28 28 27 25 25
13 16 17 19 18 18 20 21 21 22 22 23 24 24 25 28 31 29 24 33 33 26 20 23 30 33 32 30 26 27 33 37 38 40 41 42 45 46 46 44 40 41 40 36 32 32 31 30 27 24 24 22 19 16
6 7 9 12 15 17 17 16 18 21 20 21 23 25 27 29 34 33 26 18 19 21 24 30 32 32 27 24 27 32 36 41 44 46 47 48 48 48 44 40 40 41 36 31 29 31 26 23 20 17 16 13 10 11

GFSWCAN_700_spd_132.txt.gz
Wind_Speed
30 30 28 33 35 32 30 27 25 25 23 22 20 18 15 13 11 10 9 8 8 8 9 8 5 8 8 7 8 6 5 4 5 5 2 3 4 4 5 7 3 7 8 8 12 8 9 7 10 13 9 10 6 10
30 32 32 29 30 33 32 30 27 26 25 25 22 20 18 17 15 13 11 10 10 10 10 11 11 10 11 10 9 8 7 4 2 3 2 3 3 4 4 4 8 7 10 5 10 7 7 6 9 11 15 15 15 17
37 34 33 32 28 30 35 32 31 28 27 26 25 23 21 20 18 17 15 12 12 12 12 10 8 7 8 10 10 10 11 11 10 9 7 7 7 9 6 8 14 14 14 17 12 15 16 16 15 14 16 19 20 21
44 35 34 34 33 31 30 36 34 32 30 28 27 26 24 22 21 19 18 16 14 14 15 13 12 11 11 8 7 9 9 11 13 14 14 14 14 12 14 15 17 18 17 16 21 23 19 21 20 20 21 22 21 18
41 43 38 33 35 31 29 27 32 34 32 30 28 28 27 25 22 22 20 19 16 14 15 14 14 15 15 14 14 13 12 12 15 18 21 21 22 18 22 25 28 20 23 25 27 23 22 23 19 20 19 16 17 14
37 34 36 39 37 35 28 29 28 27 38 33 30 30 29 28 25 23 22 21 19 18 20 19 14 13 14 13 13 17 17 15 15 18 21 24 24 20 16 26 26 20 16 18 24 26 25 23 21 20 20 21 18 16
42 38 37 33 39 35 31 28 27 24 26 33 34 30 29 30 28 24 21 18 16 15 16 12 15 16 18 21 20 16 13 15 17 18 22 24 23 20 26 30 27 24 19 17 19 22 25 26 23 22 22 19 18 18
37 39 39 41 37 39 34 32 32 26 21 27 34 33 32 31 30 27 24 22 20 20 18 12 14 18 16 15 15 17 19 19 21 20 23 25 22 22 26 24 20 19 21 24 27 27 27 25 24 22 20 19 19 20
40 40 38 39 43 40 36 36 32 29 26 24 30 34 35 38 34 27 24 24 23 23 16 18 20 21 19 19 17 19 20 19 21 22 24 21 22 23 21 21 21 21 20 19 20 21 21 20 20 19 19 19 20 22
39 41 42 40 39 42 43 40 37 31 33 28 32 36 37 37 30 25 24 26 28 30 31 30 28 25 22 22 21 20 18 14 14 16 17 20 27 22 26 26 26 25 24 22 20 18 18 18 19 20 21 21 24 26
36 37 41 43 41 40 42 41 37 35 38 37 39 42 39 31 28 26 22 23 21 26 32 35 30 30 29 28 27 23 12 9 9 12 14 9 17 21 20 18 19 21 22 21 19 19 19 20 20 21 23 26 29 32
35 36 37 41 44 42 41 41 45 43 44 42 36 40 39 35 21 18 19 19 20 20 22 12 14 19 27 28 27 20 15 10 10 9 8 8 12 13 16 17 16 16 17 18 19 20 20 21 23 24 25 27 31 34
39 39 38 38 41 44 43 43 47 45 47 46 42 43 35 21 17 24 26 22 27 26 22 20 19 25 24 23 16 12 10 11 10 9 7 12 17 18 18 17 16 16 16 17 19 20 21 22 24 26 28 32 38 42
41 41 40 42 43 46 45 46 49 51 47 53 51 29 26 13 21 46 44 34 32 28 21 26 25 20 18 16 15 8 11 8 7 9 14 15 13 14 14 14 15 16 17 18 19 19 21 24 28 32 37 43 47 50
41 42 41 44 47 49 49 50 56 62 53 53 34 20 33 40 31 26 33 30 24 26 25 24 21 20 17 12 10 9 7 8 9 8 9 9 9 9 12 14 15 16 16 17 19 24 28 33 38 43 46 50 53 57
42 44 47 46 49 51 49 51 61 58 59 40 28 32 42 45 46 40 26 24 22 26 25 23 20 11 13 8 10 11 8 8 6 9 8 7 6 7 9 12 14 18 22 26 30 34 39 43 48 52 56 57 56 51
41 49 46 47 48 49 49 57 70 75 53 40 27 40 44 40 45 42 36 31 29 28 27 20 12 14 9 9 13 15 19 13 12 11 10 11 12 16 19 20 22 26 30 34 39 42 47 50 52 51 51 49 46 45
41 38 36 40 48 48 50 65 62 47 38 44 42 37 42 43 32 31 33 31 31 30 27 29 22 21 14 18 19 15 17 17 12 12 15 15 17 19 22 26 29 33 37 39 41 44 45 46 46 45 46 45 45 45
28 25 36 46 56 60 64 57 59 27 36 45 53 47 37 34 34 29 31 31 28 26 27 29 19 22 27 15 15 17 13 13 14 10 10 13 18 23 25 29 32 34 37 39 40 41 42 42 42 42 42 42 42 41
28 27 35 43 48 60 41 32 43 32 33 38 43 45 42 35 32 31 30 30 31 30 27 30 30 11 9 15 14 13 14 13 12 13 15 19 23 27 30 31 31 33 36 38 40 38 37 39 39 42 44 46 46 45
58 60 67 68 64 48 27 32 34 33 35 32 35 34 35 34 33 33 33 30 28 32 32 29 24 19 14 15 15 15 12 12 15 19 22 25 26 30 34 35 35 37 38 36 37 38 39 41 42 49 50 47 45 45
14 45 56 54 48 22 17 19 29 31 30 34 36 35 34 32 31 30 29 33 35 32 25 15 14 18 18 18 18 17 16 16 20 24 28 32 35 36 37 36 35 36 37 38 38 39 42 42 47 50 48 44 43 43
7 19 18 17 9 9 23 31 32 29 26 36 36 34 35 34 33 29 25 25 20 19 17 16 17 19 20 20 20 19 20 23 26 29 32 34 37 40 40 42 43 44 42 38 40 43 42 46 48 46 43 42 42 43
3 8 5 5 8 17 25 20 25 28 26 35 30 30 30 28 24 20 18 19 19 17 14 14 17 19 19 20 20 20 24 26 31 35 37 39 42 44 46 47 43 40 38 41 45 43 43 47 47 44 43 43 42 41
12 11 9 12 13 23 19 21 22 24 29 29 28 21 21 18 17 18 18 15 12 10 11 13 14 16 18 21 23 25 27 32 36 39 41 42 45 48 49 44 39 34 35 42 43 44 47 49 49 47 46 44 44 46
12 13 19 24 25 21 21 19 18 22 22 21 16 16 17 16 15 14 14 10 11 12 13 12 12 15 19 22 26 29 30 34 37 41 44 46 49 48 46 39 35 34 39 40 43 47 48 51 50 49 49 46 46 46
8 10 12 14 14 14 14 13 12 13 12 11 13 16 14 10 8 13 12 10 9 12 16 19 21 24 28 29 29 29 31 34 39 44 46 45 44 42 39 39 41 42 39 42 45 45 49 50 48 50 48 46 46 44
3 2 3 4 6 5 5 5 6 7 8 8 8 9 6 5 7 9 11 14 17 18 19 21 24 26 26 26 28 31 35 38 41 42 43 42 41 40 40 39 40 39 39 42 46 46 47 48 49 46 43 44 42 40
5 4 4 4 5 7 7 5 4 4 5 7 10 11 15 15 14 14 12 15 18 20 22 24 23 24 28 29 30 34 35 35 37 40 42 43 42 40 37 39 42 44 44 45 45 46 43 43 42 40 40 41 40 37
4 5 8 9 10 6 3 2 1 3 5 7 9 13 16 16 13 15 19 22 24 25 25 25 26 26 27 32 35 33 31 35 38 38 38 39 40 41 44 46 48 50 50 50 52 49 43 40 41 37 37 37 34 32
12 13 10 10 9 6 6 8 9 12 14 16 16 19 19 21 23 21 23 23 22 23 24 25 28 32 32 29 27 30 33 32 32 32 33 36 40 44 47 51 52 52 51 49 48 44 36 38 35 32 35 34 31 29
6 12 14 15 16 15 12 15 17 21 22 23 25 25 24 23 25 24 17 20 23 22 19 19 20 21 23 27 32 32 32 32 31 30 35 41 46 49 51 52 52 51 47 42 37 32 33 31 28 31 31 28 26 23
6 3 5 10 12 13 13 15 16 17 19 20 20 19 19 20 20 20 17 17 17 17 19 21 24 26 29 32 32 31 31 34 33 37 43 47 51 51 52 51 47 39 32 28 25 23 23 25 29 29 24 22 22 19

GFSWCAN_700_spd_135.txt.gz
Wind_Speed
27 23 24 24 29 31 29 29 28 26 24 24 23 19 16 13 12 11 10 9 8 7 7 5 2 3 6 6 6 5 5 3 4 4 3 3 3 3 3 4 1 5 5 5 10 7 7 7 7 9 5 5 8 8
32 32 26 26 24 27 33 32 30 29 27 25 26 23 19 17 14 13 12 11 10 9 10 10 9 9 8 10 7 5 5 3 2 2 3 2 3 3 4 3 5 6 8 5 9 6 6 4 6 7 11 12 13 13
32 37 32 29 29 26 23 28 32 29 27 27 28 26 22 20 18 16 14 14 12 11 12 11 6 5 5 7 9 9 8 8 8 8 7 5 5 6 7 8 10 10 12 15 15 13 15 18 14 13 14 16 18 19
32 36 36 33 31 30 29 28 27 29 31 29 29 27 25 23 21 19 17 16 15 14 14 14 13 10 9 9 9 8 8 9 10 12 13 13 11 10 12 14 16 14 15 16 21 22 22 22 18 17 17 19 20 21
38 38 35 38 36 33 32 28 25 25 23 33 30 29 27 25 23 21 19 18 18 14 14 14 13 13 14 14 13 14 13 12 12 14 16 17 18 18 22 25 26 20 21 24 27 23 22 21 18 19 19 19 20 18
31 38 38 36 39 35 33 29 24 25 24 21 32 32 29 27 25 23 21 21 20 18 19 19 14 12 11 12 14 14 13 14 17 16 16 19 19 17 15 22 22 18 19 18 19 19 18 20 21 20 19 18 18 18
31 32 37 34 36 38 32 29 28 25 24 22 24 32 31 26 24 23 21 18 16 16 16 13 16 15 13 15 17 18 20 19 15 16 19 20 19 18 25 30 26 24 22 19 18 17 18 19 20 20 20 20 21 21
35 33 31 36 32 33 38 34 31 27 26 20 18 20 29 39 31 23 23 23 22 22 19 11 13 14 12 11 12 12 13 16 20 20 23 21 20 21 25 23 19 17 18 18 19 21 23 24 24 23 23 22 21 20
35 36 35 32 36 37 33 38 33 28 27 23 22 17 25 27 31 30 22 22 23 23 16 17 17 14 14 15 13 13 14 17 20 20 22 21 22 22 23 22 22 21 21 20 19 17 18 19 21 21 20 20 20 20
29 33 37 37 33 34 39 36 34 30 29 27 26 30 33 34 23 27 30 32 30 31 33 31 27 21 18 16 17 19 18 13 14 16 17 23 25 20 24 23 21 23 23 22 20 19 18 18 18 18 18 18 20 21
32 30 33 38 40 36 34 37 39 35 32 28 34 37 34 31 26 21 19 16 16 20 28 35 32 31 31 28 26 22 13 10 13 19 18 15 24 19 19 19 17 17 18 19 20 20 18 17 16 16 18 20 21 23
34 33 32 34 38 40 38 34 38 39 36 37 35 34 35 34 24 15 14 14 17 15 21 18 16 23 33 33 25 18 16 10 10 9 10 11 13 13 15 17 17 15 15 16 17 16 16 16 17 18 20 22 24 26
35 35 35 33 35 36 38 38 34 40 38 37 38 39 37 20 16 19 26 21 21 27 24 17 17 22 19 22 15 11 9 12 14 10 13 16 13 17 19 18 15 15 15 15 14 14 16 17 19 20 21 24 28 32
35 35 36 35 34 34 33 34 36 40 39 46 38 27 26 14 20 46 44 38 33 25 16 13 15 15 18 15 12 7 12 10 10 17 15 13 14 16 14 14 14 13 12 11 12 13 15 17 18 22 28 34 39 43
31 32 33 35 35 36 35 32 35 36 38 42 30 19 38 41 41 32 31 35 36 28 20 18 21 21 19 13 9 10 7 10 10 10 15 13 12 10 9 7 6 6 7 9 11 15 18 23 29 33 37 42 46 50
28 33 37 35 35 35 37 35 37 40 46 48 35 28 42 42 48 46 41 33 31 31 27 25 26 12 16 10 12 14 10 11 13 13 9 8 7 6 5 4 5 8 12 15 20 24 28 32 37 41 43 45 46 47
30 40 35 32 31 32 34 38 42 47 42 46 41 45 44 47 47 46 47 40 30 26 33 28 18 16 11 12 17 21 31 26 18 15 11 10 10 10 10 11 12 16 19 22 26 29 32 35 38 41 43 42 41 38
35 34 34 33 31 34 36 41 44 47 52 48 51 54 50 52 51 47 42 40 35 34 34 34 27 27 24 25 27 26 24 26 24 18 15 13 11 9 8 10 13 17 21 25 29 32 34 35 38 39 36 34 37 38
32 35 35 35 37 41 44 47 54 51 46 50 54 56 51 49 47 47 42 42 42 37 36 36 27 33 38 36 30 26 23 19 18 16 15 13 9 8 9 13 16 20 23 27 30 32 33 32 32 33 33 35 40 43
28 25 31 41 44 50 45 41 51 56 40 47 53 54 53 47 43 40 38 40 41 40 40 40 40 32 24 22 23 21 18 18 16 16 14 12 14 16 18 19 21 25 28 30 32 33 33 34 31 30 34 37 41 45
22 21 33 52 66 54 38 36 38 50 45 39 45 51 48 43 38 38 43 43 41 44 44 42 37 34 31 23 20 16 14 15 15 14 14 15 18 20 23 27 30 32 34 36 41 39 35 33 33 34 37 38 41 45
10 33 59 60 56 39 31 36 36 35 48 41 38 43 45 43 42 42 42 42 44 42 40 38 33 30 28 24 17 17 18 17 16 18 19 21 22 24 27 30 34 37 40 41 43 40 37 34 34 36 38 41 44 47
8 16 28 39 31 25 23 30 32 35 25 36 41 42 37 43 43 43 41 43 43 39 37 33 25 19 19 20 19 17 17 17 18 19 22 25 27 30 33 35 37 42 43 44 40 38 35 32 35 40 42 45 46 48
7 9 9 3 6 10 27 21 30 31 28 34 36 34 36 40 38 38 41 39 37 34 27 23 19 20 20 19 17 15 15 17 19 23 26 29 33 35 37 39 41 42 41 40 36 31 32 36 40 42 44 46 47 48
11 10 7 11 12 16 18 20 26 23 31 31 33 30 29 33 31 24 29 26 24 23 21 23 23 21 18 15 14 15 18 20 23 27 30 34 37 40 40 41 44 40 33 33 34 36 39 41 41 41 44 46 48 49
10 7 6 9 13 14 14 18 18 30 31 26 21 25 29 27 16 9 20 22 21 18 17 17 18 17 18 15 13 15 19 22 27 32 34 35 39 39 41 44 43 39 33 38 41 43 43 40 41 44 45 47 48 47
22 24 27 28 28 26 26 25 27 24 21 16 26 25 19 8 9 14 15 13 11 11 14 17 18 19 19 20 21 22 25 28 32 34 34 37 37 39 39 41 42 39 36 37 38 39 41 42 44 46 47 48 47 44
16 17 18 20 20 20 22 21 19 16 17 18 18 12 9 8 11 11 11 12 14 16 18 20 21 20 21 22 24 27 29 31 32 34 37 37 36 35 39 41 38 35 35 37 40 43 46 48 50 48 49 48 44 40
11 11 11 11 10 11 11 11 11 12 13 12 11 10 8 10 9 9 12 13 14 14 15 15 15 19 22 26 29 30 31 33 33 35 36 36 35 36 39 39 37 37 38 43 46 49 50 50 49 48 45 43 38 39
2 2 4 4 5 7 9 9 10 9 9 9 8 7 7 7 8 8 9 12 13 14 14 16 20 24 28 30 31 30 28 30 33 34 36 37 38 40 41 38 37 40 45 50 53 53 52 49 45 40 36 32 33 33
2 2 0 1 7 8 9 7 6 6 6 6 6 7 8 9 9 11 13 13 14 16 21 24 25 25 26 27 28 30 31 29 30 33 36 39 38 38 37 37 42 47 50 52 53 52 47 40 33 29 27 27 26 28
3 4 5 8 9 9 8 8 10 11 11 12 13 14 15 17 19 20 16 10 12 18 18 19 22 22 23 24 24 25 26 30 34 34 32 32 33 34 36 42 47 50 52 50 47 40 32 26 22 20 20 22 26 26
3 6 8 5 2 5 9 12 15 16 17 17 16 16 16 15 13 7 7 9 13 14 15 17 18 20 23 25 26 26 27 27 27 27 29 33 37 41 46 48 49 50 48 44 35 27 23 22 22 23 24 24 19 15

GFSWCAN_700_spd_138.txt.gz
Wind_Speed
38 33 26 22 22 29 36 31 30 28 26 23 21 20 17 14 14 13 11 9 7 5 7 5 2 4 5 5 4 3 3 1 4 5 3 3 4 5 4 6 4 7 8 8 13 9 7 6 6 7 4 3 6 9
25 25 31 22 22 25 28 33 30 29 26 25 24 22 20 17 15 15 14 12 10 8 7 9 9 9 9 8 8 5 5 3 3 4 4 3 4 4 5 3 8 5 9 4 8 4 5 3 4 5 6 7 7 9
26 27 27 29 26 23 26 28 33 30 27 26 25 25 23 20 18 17 16 15 13 12 11 11 8 6 5 6 7 8 8 8 8 8 7 6 5 7 5 6 9 8 10 13 11 6 11 16 15 15 13 11 12 15
30 29 26 27 30 26 28 26 25 28 32 30 26 25 24 22 20 18 19 17 15 14 14 13 13 12 9 9 8 9 9 8 9 10 12 12 11 10 12 11 13 14 16 16 20 18 18 17 18 18 18 17 16 18
28 32 30 27 28 33 30 29 26 25 23 24 27 30 27 23 21 20 20 19 17 14 11 7 6 8 9 12 12 11 11 12 12 13 14 14 16 17 21 22 19 14 17 20 23 21 20 19 18 18 17 18 19 20
29 29 34 32 27 29 34 30 28 25 24 23 21 19 25 29 25 22 21 22 20 18 19 19 16 16 17 16 15 15 14 15 14 14 16 18 16 17 13 18 19 17 18 18 20 19 20 19 17 18 19 20 20 20
32 30 30 38 36 36 30 30 31 31 25 23 22 20 19 20 28 28 22 18 17 16 14 12 16 18 20 21 20 18 15 16 18 20 20 18 17 19 27 27 23 22 19 19 19 20 19 19 17 16 18 19 19 19
34 35 31 30 34 39 40 35 36 32 30 26 21 19 19 20 26 25 26 24 21 20 18 11 12 11 8 9 9 11 12 13 16 17 20 21 21 23 28 25 23 19 18 16 15 17 19 20 21 21 21 20 19 19
27 34 36 33 30 35 37 40 35 36 32 26 25 24 19 21 18 20 31 29 23 23 16 16 15 13 13 16 17 17 17 16 19 22 24 25 26 26 28 26 24 22 23 20 19 19 19 19 19 19 19 19 19 19
27 27 33 37 34 31 34 36 37 38 34 30 26 28 29 30 21 16 15 21 31 33 30 30 28 22 20 17 15 14 13 12 14 17 19 28 35 24 23 24 28 29 27 25 23 20 19 18 18 18 18 17 17 17
29 28 28 31 37 35 31 34 38 37 31 29 31 33 32 25 24 21 16 11 13 14 22 29 33 36 31 27 25 21 13 11 13 19 21 21 30 26 26 25 26 24 22 22 21 20 18 18 17 16 15 16 17 18
29 30 30 30 31 36 36 33 34 40 35 29 33 31 33 28 19 14 15 14 14 13 11 16 12 21 30 30 25 16 17 10 11 11 10 12 13 8 11 18 21 19 17 19 19 18 16 14 13 14 15 17 18 19
26 29 30 32 31 31 36 35 34 31 34 26 33 39 32 21 16 19 25 20 21 21 19 10 10 17 22 23 14 9 9 11 12 10 15 21 19 19 19 20 19 20 17 14 13 13 12 12 13 14 16 18 19 23
25 26 28 31 32 31 31 34 34 33 26 31 19 23 22 13 19 42 41 38 36 29 19 13 14 15 19 15 11 7 11 9 9 16 25 24 27 19 18 20 20 15 13 10 8 8 9 10 12 15 18 22 28 34
24 25 23 25 28 32 31 32 30 29 31 32 18 14 27 37 31 25 30 37 35 29 26 19 18 20 18 13 11 11 8 10 10 11 10 10 11 14 17 16 14 12 9 8 8 11 12 14 19 23 28 32 36 41
22 20 24 24 25 26 30 32 33 32 34 34 29 16 22 33 42 45 41 28 25 28 26 25 26 16 17 12 14 17 13 15 19 24 20 16 12 11 12 13 12 10 10 12 13 16 19 23 27 31 33 36 39 41
24 27 24 22 22 24 27 31 33 36 33 38 51 54 35 32 32 34 40 40 31 28 33 27 20 17 15 17 25 26 38 34 20 20 22 20 19 16 15 14 13 14 14 15 16 19 21 25 29 32 35 35 36 36
28 28 23 22 24 27 30 35 35 31 41 51 54 60 61 49 41 35 33 35 35 34 33 37 30 29 34 34 38 36 27 19 18 19 23 23 19 18 18 16 14 12 12 14 15 17 21 24 27 30 33 35 36 32
25 24 26 26 26 26 30 37 42 38 49 52 56 56 58 63 57 41 33 30 34 38 39 44 39 41 45 44 39 30 28 25 24 21 22 23 22 18 14 12 12 14 15 16 19 22 24 27 30 34 35 36 37 34
26 24 24 20 24 26 30 33 40 51 55 55 52 51 54 60 61 49 37 37 36 39 47 49 50 44 41 41 38 33 33 31 26 24 24 22 19 16 14 14 15 16 19 23 25 25 29 33 35 38 37 37 37 35
20 20 24 27 36 45 43 38 39 49 56 54 50 48 49 51 56 57 48 38 40 47 55 55 49 47 48 45 35 28 26 26 21 19 19 20 17 15 15 16 19 22 25 25 27 29 34 38 42 40 38 35 33 35
17 22 25 29 43 50 50 44 46 47 44 51 47 47 47 49 48 42 42 47 51 53 53 47 47 46 46 42 39 33 28 21 21 22 21 19 17 17 18 21 24 26 29 30 33 37 39 42 41 39 33 31 34 37
19 14 24 29 25 25 31 44 37 42 43 45 43 37 38 40 42 42 46 48 56 56 48 48 49 50 48 43 36 29 22 21 21 20 20 20 20 21 22 24 27 30 32 32 35 38 41 39 35 33 32 35 38 40
18 17 16 21 15 11 31 29 31 28 28 32 39 36 34 37 38 42 48 52 56 57 55 56 54 51 43 31 26 21 20 20 22 22 21 22 22 22 25 27 31 33 34 36 37 40 39 36 35 37 38 38 38 39
7 6 7 9 13 17 25 24 30 33 29 32 35 32 34 38 34 37 41 42 43 45 46 43 38 33 25 18 18 20 23 24 23 22 22 23 23 25 28 32 35 33 33 38 38 39 37 37 38 37 37 38 40 42
2 2 4 8 14 19 18 25 28 33 30 34 31 32 34 29 27 25 37 43 41 39 35 32 28 25 19 19 20 21 22 23 24 24 22 25 27 30 31 35 33 33 34 37 38 39 40 39 39 38 40 43 45 46
11 11 11 10 12 15 18 16 15 22 20 11 20 25 18 9 5 10 18 21 22 20 18 16 14 13 15 20 22 23 24 23 24 26 26 28 31 32 34 34 35 34 34 35 37 40 41 40 40 44 48 50 50 49
19 21 22 24 25 23 25 23 17 13 10 18 21 9 5 5 15 22 20 19 19 18 17 16 17 18 21 23 25 26 27 28 29 30 31 31 32 31 32 34 34 34 34 36 38 39 39 42 45 49 51 52 51 46
11 11 13 11 13 14 14 15 15 16 19 18 18 19 21 22 21 18 17 16 16 17 18 20 22 24 24 24 26 28 29 29 31 32 32 32 29 28 33 32 32 33 35 38 38 39 42 45 49 52 54 51 44 35
7 7 6 6 7 9 7 10 14 15 14 13 13 16 19 18 16 15 15 15 16 16 16 17 17 18 20 22 24 27 28 29 29 29 29 29 29 29 29 31 34 35 37 39 40 41 43 46 48 48 43 36 30 27
5 5 5 5 6 9 9 10 11 10 10 10 11 12 12 11 10 10 11 12 13 15 17 18 18 20 21 22 22 21 21 23 23 25 26 27 29 31 34 35 36 37 39 40 42 43 45 47 45 38 30 25 23 23
3 1 5 8 9 9 8 7 7 7 7 6 6 7 9 9 10 10 12 14 17 19 19 16 14 15 15 15 16 16 19 23 26 28 29 31 32 33 35 36 38 40 43 44 46 46 44 40 34 28 26 25 26 27
3 6 4 2 3 6 9 11 11 11 12 13 13 12 11 9 5 4 9 11 11 10 10 11 13 14 16 19 20 21 23 23 23 23 25 28 32 36 40 42 44 46 47 47 42 37 32 28 25 24 25 25 25 21